Location: Brisée
(50.4968°N, 4.0113°E)
Time: 21:37:56
(UTC+00:00)

Daily predictions for brighter satellites

Satellite Brightness Start Highest point End
(mag) Time Altitude Azimuth Time Altitude Azimuth Time Altitude Azimuth
Cosmos 1943 Rocket 2.4 16:38:30 10° NNW 16:43:59 48° NE 16:49:25 10° SE
NOSS 5 (C) 4.2 16:42:48 10° NW 16:46:06 79° NE 16:49:19 10° SE
ARIANE 5 R/B 3.2 16:41:16 10° S 16:46:26 63° WSW 16:51:37 10° NNW
Cosmos 2034 Rocket 4.4 16:43:33 10° NNW 16:49:41 70° W 16:55:48 10° S
Cosmos 2237 Rocket 3.2 16:45:43 10° SSE 16:50:22 27° ESE 16:55:03 10° NE
RESURS DK-1 2.8 16:47:11 10° NNW 16:51:00 39° NE 16:54:47 10° ESE
Cosmos 1515 Rocket 4.3 16:49:43 10° SSW 16:53:57 56° WNW 16:58:14 10° N
Tsikada Rocket 4.0 16:48:32 10° S 16:54:39 76° E 17:00:50 10° NNE
BlueWalker 3 2.1 16:52:26 10° WNW 16:56:02 54° N 16:59:39 10° E
USA 81 4.0 16:51:30 10° S 16:56:46 79° E 17:02:03 10° N
BREEZE-M DEB (TANK) 2.6 16:55:23 10° SW 16:57:27 27° SSE 16:59:52 10° E
Cosmos 1455 1.6 16:54:35 10° N 16:57:49 80° ENE 17:01:01 10° SSE
Cosmos 2278 Rocket 2.2 16:52:31 10° NNW 16:58:13 72° ENE 17:03:51 10° SE
COSMO-SKYMED 1 3.8 16:57:22 10° NE 17:00:45 21° E 17:04:06 10° SE
Cosmos 2219 Rocket 2.7 16:55:47 10° SW 17:01:17 58° NW 17:06:51 10° NNE
SJ-7 4.3 16:58:21 10° SSE 17:02:02 54° ENE 17:05:47 10° N
ARGOS Delta rocket 3.7 16:58:02 10° SSE 17:02:38 66° ENE 17:07:04 10° N
ISS -2.1 17:00:39 10° SSW 17:03:22 23° SE 17:06:06 10° E
CZ-4C R/B 3.2 17:01:27 10° SSE 17:04:38 19° ESE 17:08:01 11° ENE
CSL-04 DEB 4.2 17:02:40 10° SSE 17:06:31 75° ENE 17:10:19 10° NNW
Meteor 1-21 4.2 17:03:36 10° S 17:09:08 67° E 17:14:46 10° NNE
USA 306 2.3 17:09:16 10° WNW 17:11:12 32° N 17:12:55 16° ENE
SL-14 R/B 4.2 17:07:44 10° SSW 17:11:22 47° WNW 17:15:04 10° N
CORIOLIS 4.4 17:06:00 10° S 17:11:26 78° WSW 17:16:55 10° NNW
Cosmos 1763 Rocket 3.5 17:07:04 10° S 17:12:12 65° ESE 17:17:19 10° NNE
Spot 4 Rocket 4.0 17:07:49 10° SSE 17:12:58 89° ENE 17:18:08 10° NNW
YAOGAN 1 3.5 17:10:19 10° ESE 17:13:48 25° ENE 17:17:17 10° N
Cosmos 1733 Rocket 3.1 17:09:37 10° N 17:13:57 55° ENE 17:18:17 10° SSE
Cosmos 540 Rocket 3.6 17:12:55 10° S 17:17:56 57° ESE 17:22:58 10° NNE
Landsat 7 4.1 17:15:24 10° SE 17:19:50 43° ENE 17:24:17 10° N
Cosmos 2322 3.9 17:14:55 10° SW 17:20:39 76° WNW 17:26:25 10° NNE
SPOT 1/Viking Rocket 4.5 17:17:35 10° ESE 17:21:44 25° ENE 17:25:53 10° N
Cosmos 468 Rocket 4.2 17:16:53 10° S 17:21:52 49° ESE 17:26:50 10° NNE
USA 215 3.5 17:16:12 12° ENE 17:22:21 65° NNW 17:28:48 10° W
Cosmos 2228 Rocket 3.3 17:21:19 10° S 17:25:43 52° E 17:30:10 10° NNE
Cosmos 2279 Rocket 4.0 17:19:49 10° N 17:26:04 86° E 17:32:16 10° S
NOSS 8 (A) 4.4 17:25:22 10° NW 17:28:15 71° SW 17:31:38 10° SE
Cosmos 1656 Rocket 4.3 17:23:36 10° NNW 17:28:30 32° NE 17:33:23 10° ESE
Cosmos 1898 Rocket 3.5 17:23:36 10° NNW 17:28:52 63° ENE 17:34:07 10° SE
Cosmos 841 Rocket 4.3 17:26:53 10° SSE 17:31:27 31° ESE 17:35:00 15° NE
Aureole 1 Rocket 4.3 17:25:08 10° NNW 17:32:55 79° ENE 17:39:54 10° SSE
PSLV R/B 4.0 17:29:45 10° S 17:33:46 62° WSW 17:37:50 10° NNW
Cosmos 1703 4.4 17:34:21 10° SE 17:36:27 19° E 17:36:27 19° E
Okean 1-7 3.4 17:35:27 10° SSE 17:39:25 39° E 17:43:22 10° NNE
SL-16 R/B 3.4 17:35:43 10° SE 17:39:44 20° E 17:40:54 19° E
Cosmos 1980 3.7 17:34:17 10° SSW 17:39:49 63° ESE 17:44:57 12° NE
Cosmos 1953 2.3 17:39:04 10° NNW 17:42:48 73° W 17:46:30 10° S
NOSS 8 (E) 4.4 17:38:52 10° SW 17:42:53 87° SE 17:44:41 25° NE
SKYMED 2 3.6 17:44:45 10° NNE 17:49:05 60° ESE 17:53:22 10° S
NOSS 0 Rocket 3.9 17:43:36 10° SSW 17:49:45 89° WNW 17:55:40 11° NNE
Cosmos 1818 3.6 17:46:13 10° NW 17:51:39 60° NE 17:56:19 14° ESE
ATLAS 2AS CENTAUR R/B 2.7 17:46:26 10° NW 17:53:14 62° NE 17:59:05 14° ESE
NOSS 8 (H) 4.3 17:50:45 10° SW 17:54:36 84° NW 17:55:55 33° NE
Cosmos 2369 Rocket 2.8 17:49:33 10° NNW 17:54:38 34° NE 17:56:55 25° E
Resurs 01 Rocket 3.6 17:57:26 13° NNE 17:57:26 13° NNE 17:58:09 10° NNE
ACS3 Solar Sail 1.8 17:50:19 10° SSE 17:56:41 72° ENE 18:03:03 10° N
COSMOS 2428 3.4 17:51:35 10° SW 17:57:08 52° NW 18:02:44 10° NNE
Cosmos 372 Rocket 4.0 17:53:48 10° NNW 17:58:54 81° WSW 18:03:59 10° SSE
Cosmos 2333 Rocket 4.3 17:55:10 10° W 17:59:12 20° NW 18:03:17 10° NNE
BREEZE-M DEB (TANK) 3.3 17:57:24 10° WSW 18:05:59 79° S 18:07:22 38° E
Cosmos 1908 Rocket 3.4 18:02:43 10° N 18:07:03 63° ENE 18:11:19 10° SSE
Cosmos 2322 Rocket 4.4 18:05:09 10° WNW 18:08:36 16° NNW 18:12:04 10° N
Cosmos 2360 Rocket 4.4 18:07:41 10° WNW 18:11:26 18° NNW 18:15:13 10° N
Meteor 1-31 Rocket 2.6 18:09:24 10° S 18:12:57 77° WSW 18:16:34 10° NNW
EO 1 Delta rocket 3.7 18:08:13 10° N 18:13:01 84° ESE 18:17:39 10° S
Okean 3 4.4 18:09:45 10° SSW 18:13:42 47° WNW 18:17:44 10° N
Cosmos 1707 Rocket 4.3 18:10:10 10° SSW 18:14:30 53° WNW 18:18:52 10° N
Okean 2 4.1 18:13:38 10° SSW 18:17:30 51° WNW 18:21:23 10° N
Cosmos 2297 3.8 18:12:16 10° NNW 18:17:54 52° NE 18:20:17 32° ESE
Cosmos 1937 Rocket 3.6 18:13:46 10° NNW 18:18:55 74° WSW 18:24:03 10° SSE
CZ-2C R/B 2.5 18:22:18 61° N 18:22:18 61° N 18:25:12 10° NNW
Cosmos 2026 Rocket 4.1 18:17:01 10° SSE 18:23:10 55° E 18:29:22 10° NNE
Cosmos 858 Rocket 4.4 18:18:16 10° NNW 18:23:30 86° WSW 18:28:43 10° SSE
BREEZE-M DEB (TANK) 3.5 18:13:45 10° WSW 18:27:20 65° SSE 18:28:55 42° ESE
Cosmos 1943 Rocket 3.8 18:22:31 10° NW 18:27:36 35° WSW 18:32:37 10° S
Cosmos 1428 Rocket 4.3 18:23:48 10° S 18:30:00 80° E 18:36:10 10° NNE
BlueWalker 3 1.8 18:30:19 10° WNW 18:33:53 77° SW 18:33:53 77° SW
Cosmos 2237 Rocket 2.6 18:28:23 10° SW 18:34:01 62° WNW 18:37:58 20° NNE
COSMO-SKYMED 1 3.5 18:32:57 10° N 18:37:10 48° WNW 18:41:20 10° SW
ISS -2.9 18:36:27 10° WSW 18:39:01 49° WSW 18:39:01 49° WSW
USA 306 4.4 18:40:04 10° WNW 18:40:49 18° WNW 18:40:49 18° WNW
Cosmos 1782 Rocket 4.0 18:38:31 10° N 18:41:42 47° N 18:41:42 47° N
Cosmos 2344 3.9 18:37:11 10° WSW 18:44:25 56° NW 18:48:48 25° NE
Cosmos 2219 Rocket 4.4 18:42:52 10° WNW 18:46:29 17° NNW 18:50:07 10° N
YAOGAN 1 3.7 18:45:27 10° S 18:49:31 42° W 18:53:36 10° NNW
YAOGAN 11 4.0 18:51:31 78° SW 18:51:31 78° SW 18:55:32 10° SSW
CZ-4C R/B 2.0 18:47:29 10° SW 18:52:01 75° NW 18:53:04 56° NNE
ATLAS 5 CENTAUR R/B 3.0 18:53:28 10° SW 18:54:39 21° SW 18:54:39 21° SW
Meteor 1-24 Rocket 3.7 18:52:18 10° S 18:58:09 66° E 18:58:09 66° E
CZ-4B R/B 4.4 19:00:45 27° N 19:00:45 27° N 19:03:19 10° N
SPOT 1/Viking Rocket 4.0 18:55:40 10° S 19:00:45 58° W 19:05:52 10° NNW
Cosmos 1703 Rocket 4.1 18:56:47 10° SSW 19:01:11 59° WNW 19:02:12 46° NNW
USA 215 3.6 19:03:32 44° NE 19:04:55 51° N 19:11:11 10° WNW
Resurs 1-3 4.5 19:01:06 10° S 19:05:16 47° W 19:09:28 10° NNW
Meteor 2-5 Rocket 3.9 19:03:00 10° S 19:07:38 58° SSE 19:07:38 58° SSE
Cosmos 1656 Rocket 4.2 19:06:59 10° NW 19:12:20 56° WSW 19:14:50 31° S
Cosmos 841 Rocket 4.4 19:08:01 10° SW 19:13:05 46° WNW 19:15:03 32° N
SL-16 R/B 2.3 19:17:31 10° SSW 19:22:50 75° W 19:22:50 75° W
Cosmos 1553 Rocket 3.8 19:17:39 10° N 19:23:50 86° W 19:23:51 86° WSW
ADEOS 4.0 19:29:31 59° WNW 19:29:31 59° WNW 19:34:19 10° NNW
Resurs 01 Rocket 4.2 19:34:52 13° NNW 19:34:52 13° NNW 19:35:25 10° NNW
Cosmos 2369 Rocket 2.8 19:33:28 10° NW 19:38:45 53° WSW 19:38:45 53° WSW
ACS3 Solar Sail 3.9 19:35:42 10° SW 19:40:48 25° W 19:45:57 10° NW
ATLAS 2AS CENTAUR R/B 3.7 19:37:41 10° NW 19:43:53 39° WSW 19:46:35 28° SSW
Cosmos 2237 Rocket 4.4 20:15:26 10° WNW 20:19:16 18° NNW 20:19:48 18° NNW
